Location: Albuquerque Trailhead
(34.7934°N, 106.3736°W)
Time: 02:27:11
(UTC+00:00)

Cosmos 1656 - Pass Details

Date: 20 June 2021
Orbit: 797 x 850 km, 71.1° (Epoch: 27 July)

Event Time Altitude Azimuth Distance (km) Brightness Sun altitude
Rises 10:27:17 0° 341° (NNW) 3,420 7.2 -14.9°
Reaches altitude 10° 10:29:45 10° 344° (NNW) 2,481 6.5 -14.5°
Maximum altitude 10:35:27 71° 68° (ENE) 896 4.0 -13.7°
Drops below altitude 10° 10:41:05 10° 152° (SSE) 2,453 6.0 -12.8°
Sets 10:43:31 0° 155° (SSE) 3,377 6.7 -12.4°
